TITAN 3C TRANSTAGE DEB, 2050

Orbit data source: Space-Track

TITAN 3C TRANSTAGE DEB, 2050 is space debris in LEO originally from a launch on Fri, 15 Oct 1965 UTC launched from the Air Force Eastern Test Range (AFETR). Debris objects in space refer to the collection of defunct objects orbiting the Earth. Examples of debris include non-operational satellites, rocket bodies, and fragments generated from explosions, collisions, or faulty payload assembly.

Loading next visibility...
TITAN 3C TRANSTAGE DEB details
Identifier
2050, 1965-082JL
Orbit
LEO
Last TLE update1 day ago
Origin
Flag of USUSAF SSD (US)
ManufacturerUnknown
MissionSpacecraft
Bus & MotorUnknown
MassUnknown
Launch date (UTC)
1965-10-15 (59 years ago)
Launch vehicleUnknown
Launch site
Air Force Eastern Test Range (AFETR)
Object type
Payload
Rocket body
Debris
Shape & HBRUnknown
Radar Cross SectionSmall (<0.1 m²)

Expand to show TLE details & history

TLE from 1 day ago
0 TITAN 3C TRANSTAGE DEB
1 02050U 65082JL  25036.85913373  .00002427  00000-0  57658-3 0  9992
2 02050  32.2639 238.7695 0084754  16.5187 343.8192 14.50395223 86480
Epoch: 2025-02-05T20:37Z
Definitive object data (Epoch: 2025-02-05T20:37:09.154Z)
Latitude-0.00004°
Longitude153.23727°
Altitude665.27 km
Speed7.557 km/s
True Right ascension15h 55m 04s
True Declination0° 00' 00"
Sunlit
Object was in daylight at TLE epoch
Visualization TLE readout
Latitude-19.53133°
Longitude112.12178°
Altitude702.513 km
Speed7.519 km/s
Apparent Right ascension14h 29m 57s
Apparent Declination-31° 09' 55"
Sunlit
Object is in daylight
Visualization observer readout
Local Sidereal Time04:20:08
Azimuth77.2° E
Elevation-66.06°
Doppler factor1
Orbital elements
Apogee altitude788.141 km
Perigee altitude667.688 km
Semi-major axis7,106.051 km
Eccentricity0.0084754
Inclination32.2639°
RAAN238.7695°
Arg. of periapsis16.5187°
True anomaly343.54577°
Mean anomaly343.8192°
Eccentric anomaly343.68277°
Mean motion3.62327 °/min
BSTAR0.00057658
Orbital period99.36 mins
Loading maneuver chart data...

TITAN 3C TRANSTAGE DEB Visibility forecast

Observer location: undefined°, undefined

Span
Click to sort rows by Start time (UTC) header in descending order
Start Az.
Max El. time (UTC)
Max El. Az.
Max El.
End time (UTC)
End Az.
6 mins2025-02-07 17:30:47.119Z210.529° SW2025-02-07 17:32:47.119Z177.311° S24.242°2025-02-07 17:36:47.119Z114.529° SE
7 mins2025-02-07 19:14:47.119Z237.544° WSW2025-02-07 19:17:47.119Z185.971° SSW28.938°2025-02-07 19:21:47.119Z122.593° SE
6 mins2025-02-07 20:59:47.119Z238.318° WSW2025-02-07 21:02:47.119Z193.354° SSW21.192°2025-02-07 21:05:47.119Z152.304° SSE
|